Regional Weather Roundup
Issued by NWS

Home | Current Version | Previous Version | Graphics & Text | Print | Product List | Glossary On
Versions: 1 2 3 4 5 6 7 8 9 10 11 12 13 14 15 16 17 18 19 20 21 22 23 24 25 26 27 28 29 30 31 32 33 34 35 36 37 38 39 40 41 42 43 44 45 46 47 48 49 50
870
ASUS43 KOAX 171902
RWRNE

WEATHER ROUNDUP FOR NEBRASKA
NATIONAL WEATHER SERVICE OMAHA NE
100 PM CST SUN DEC 17 2017

NOTES: SATELLITE DATA IS BEING USED TO AUGMENT CLOUD COVER ABOVE
       12000 FEET.
       "FAIR" INDICATES FEW OR NO CLOUDS BELOW 12,000 FEET WITH NO
       SIGNIFICANT WEATHER AND/OR OBSTRUCTIONS TO VISIBILITY.


NEZ001>004-019>022-054>056-172000-
NEBRASKA PANHANDLE

CITY           SKY/WX    TMP DP  RH WIND       PRES   REMARKS
SCOTTSBLUFF    MOSUNNY   42  28  57 SW6       29.93F
ALLIANCE       MOSUNNY   38  28  67 SW13      29.93F WCI  30
CHADRON        MOSUNNY   40  28  62 W12       29.93F WCI  33
GORDON         CLOUDY    36  29  76 SW10      29.93F WCI  28
KIMBALL        SUNNY     38  27  65 W10       29.94F WCI  31
SIDNEY         SUNNY     39  27  62 W10       29.95F WCI  32
$$

NEZ057>060-069>072-079>082-172000-
SOUTHWEST NEBRASKA

CITY           SKY/WX    TMP DP  RH WIND       PRES   REMARKS
NORTH PLATTE   CLOUDY    38  32  79 N5        29.99F WCI  34
IMPERIAL       CLOUDY    38  33  82 NW3       30.00F
LEXINGTON      CLOUDY    40  32  71 N8        29.99F WCI  35
MCCOOK         CLOUDY    39  31  72 NW7       30.01F WCI  34
OGALLALA       CLOUDY    39  33  80 W3        29.97F
$$

NEZ005>010-023>029-035>040-094-172000-
NORTH CENTRAL NEBRASKA

CITY           SKY/WX    TMP DP  RH WIND       PRES   REMARKS
VALENTINE      CLOUDY    41  30  65 SW6       29.98F
AINSWORTH      CLOUDY    37  31  77 CALM      29.98F
BROKEN BOW     CLOUDY    37  31  78 N8        29.98F WCI  31
O`NEILL        PTSUNNY   40  30  66 N7        29.99F
ORD            CLOUDY    39  29  67 NW8       29.99F WCI  33
THEDFORD       CLOUDY    37  31  82 CALM      29.98F
$$

NEZ041-046>049-061>064-073>077-083>087-172000-
SOUTH CENTRAL NEBRASKA

CITY           SKY/WX    TMP DP  RH WIND       PRES   REMARKS
GRAND ISLAND   MOSUNNY   41  31  67 N9        30.00F
AURORA         SUNNY     40  30  66 N10G16    29.98F WCI  34
HASTINGS       SUNNY     41  29  62 N12       29.98F
HEBRON         SUNNY     42  33  70 N8        29.99S
HOLDREGE       PTSUNNY   39  32  75 N10G16    29.98F WCI  33
KEARNEY        MOSUNNY   41  30  65 N12       29.99F
YORK           SUNNY     39  30  70 N14       29.98F WCI  31
$$

NEZ011>018-030>034-042>045-172000-
NORTHEAST NEBRASKA

CITY           SKY/WX    TMP DP  RH WIND       PRES   REMARKS
NORFOLK        CLOUDY    37  28  70 VRB5      29.97F WCI  33
ALBION         FLURRIES  38  32  79 N10       29.99F WCI  30
BLAIR          PTSUNNY   35  28  78 N10       29.97F WCI  27
COLUMBUS       SUNNY     40  29  64 N10       29.99F WCI  33
FREMONT        CLOUDY    31  27  85 N6        30.00F WCI  25
TEKAMAH        CLOUDY    32  26  78 N10       30.00F WCI  24
WAYNE          CLOUDY    34  28  80 N6        30.00F WCI  29
$$

NEZ050>053-065>068-078-088>093-172000-
SOUTHEAST NEBRASKA

CITY           SKY/WX    TMP DP  RH WIND       PRES   REMARKS
LINCOLN        MOSUNNY   39  30  70 N9        30.00F WCI  33
OMAHA EPPLEY   PTSUNNY   35  27  72 N13       29.99F WCI  26
BEATRICE       PTSUNNY   39  36  89 CALM      29.97F FOG
FALLS CITY     CLOUDY    40  37  89 N5        29.97F
NEBRASKA CITY  CLOUDY    35  35 100 N6        29.98F FOG     WCI  30
PLATTSMOUTH    CLOUDY    33  32  95 N5        29.98F FOG     WCI  29
$$

NEZ044-045-051>053-067-172000-
OMAHA AREA

CITY           SKY/WX    TMP DP  RH WIND       PRES   REMARKS
OMAHA EPPLEY   PTSUNNY   35  27  72 N13       29.99F WCI  26
BLAIR          PTSUNNY   35  28  78 N10       29.97F WCI  27
FREMONT        CLOUDY    31  27  85 N6        30.00F WCI  25
MILLARD        MOSUNNY   37  29  73 W8        29.99F WCI  31
OFFUTT AFB     CLOUDY    34  29  81 NE3       29.98F
PLATTSMOUTH    CLOUDY    33  32  95 N5        29.98F FOG     WCI  29
WAHOO          FAIR      35  27  72 N9        29.99F WCI  27
$$




USA.gov is the U.S. government's official web portal to all federal, state and local government web resources and services.